CZ-6A DEB, 54411

Orbit data source: Space-Track

CZ-6A DEB, 54411 is space debris in SSO originally from a launch on Fri, 11 Nov 2022 UTC launched from the Taiyaun Space Center, China (TSC). Debris objects in space refer to the collection of defunct objects orbiting the Earth. Examples of debris include non-operational satellites, rocket bodies, and fragments generated from explosions, collisions, or faulty payload assembly.

Loading next visibility...
Identifier
54411, 2022-151EK
Orbit
SSO
Country
Flag of CNCN / PRC
Related business
Manufacturer
SAST
Mission
Spacecraft
Bus & Motor
Unknown
Mass
Unknown
Launch date (UTC)
2022-11-11 (3 years ago)
Launch vehicle
Unknown
Launch site
Taiyaun Space Center, China (TSC)
Object type
Payload
Rocket body
Debris
Shape & HBR
Unknown shape, 0.1 m
Radar Cross Section
Medium (>0.1 m² and <1 m²)

Expand to show TLE details & history
Last TLE update: 13 hours ago

TLE from 13 hours ago
0 CZ-6A DEB
1 54411U 22151EK  26130.02357007  .00001462  00000-0  46681-3 0  9993
2 54411  98.7102 154.7433 0204408  61.8726 300.2948 14.29985870181457
Epoch: 2026-05-10T00:33Z
TLE epoch observation values (Epoch: 2026-05-10T00:33:56.454Z)
Latitude
0.00001°
Longitude
-81.57453°
Altitude
723.029 km
Speed
7.531 km/s
True Right ascension
10h 18m 58s
True Declination
0° 00' 00"
Sunlit
Object was in daylight at epoch
Visualization orbit readout
Latitude
Unknown
Longitude
Unknown
Altitude
Unknown
Speed
Unknown
Apparent Right ascension
Unknown
Apparent Declination
Unknown
Sunlit
N/A
Visualization observer readout
Local Sidereal Time
21:24:59
Azimuth
Unknown
Elevation
Unknown
Doppler factor
Unknown
Orbital elements
Apogee altitude
935.422 km
Perigee altitude
642.421 km
Semi-major axis
7,167.059 km
Eccentricity
0.02044
Inclination
98.7102°
RAAN
154.7433°
Arg. of periapsis
61.8726°
True anomaly
298.24637°
Mean anomaly
300.2948°
Eccentric anomaly
299.27319°
Mean motion
3.57711 °/min
Orbital period
100.64 mins
BSTAR
0.00046681
Loading maneuver chart data...
Computing Atmospheric mass density...
Loading historical data...
Loading historical data...
Loading historical data...
Loading historical data...
Loading historical data...
Loading historical data...
Loading historical data...

Documentation

Showing up to 5 results
|